This is the latest recevied weather packets stored in our database for station/object BARLOW-WX. If no packets are shown the sender has not sent any weather packets the latest 10 day(s).
| Time | Temp. | Humidity | Pressure | Rain* | Wind** | Luminosity | Snow |
|---|---|---|---|---|---|---|---|
| 1777482977 | 10° C | 83% | 984.3 hPa | 0.25 mm | - | - | - |
| 1777481178 | 10° C | 79% | 984.8 hPa | 0 mm | - | - | - |
| 1777478508 | 10° C | 82% | 984.7 hPa | 0 mm | - | - | - |
| 1777473977 | 10° C | 85% | 985.5 hPa | 0 mm | - | - | - |
| 1777471317 | 10.56° C | 84% | 985.4 hPa | 0 mm | - | - | - |
| 1777468577 | 10° C | 88% | 986 hPa | 0 mm | - | - | - |
| 1777467706 | 9.44° C | 88% | 986 hPa | 0 mm | - | - | - |
| 1777466777 | 9.44° C | 90% | 986.1 hPa | 0 mm | - | - | - |
| 1777464977 | 9.44° C | 89% | 986 hPa | 0 mm | - | - | - |
| 1777461377 | 8.89° C | 92% | 985.4 hPa | 0 mm | - | - | - |
| 1777460502 | 8.89° C | 92% | 985.4 hPa | 0 mm | - | - | - |
| 1777458696 | 8.89° C | 92% | 984.9 hPa | 0 mm | - | - | - |
| 1777457777 | 8.89° C | 92% | 984.9 hPa | 0 mm | - | - | - |
| 1777456909 | 8.89° C | 92% | 984.9 hPa | 0 mm | - | - | - |
| 1777455977 | 8.89° C | 91% | 985.2 hPa | 0 mm | - | - | - |
| 1777455095 | 8.89° C | 91% | 985.2 hPa | 0 mm | - | - | - |
| 1777454177 | 8.89° C | 91% | 985.2 hPa | 0 mm | - | - | - |
| 1777453306 | 8.89° C | 91% | 985.2 hPa | 0 mm | - | - | - |
| 1777452378 | 8.89° C | 91% | 984.3 hPa | 0 mm | - | - | - |
| 1777451496 | 8.89° C | 89% | 983.8 hPa | 0 mm | - | - | - |
| 1777450577 | 8.89° C | 89% | 983.8 hPa | 0 mm | - | - | - |
| 1777449707 | 8.89° C | 89% | 983.8 hPa | 0 mm | - | - | - |
| 1777447894 | 9.44° C | 88% | 984.5 hPa | 0 mm | - | - | - |
| 1777446976 | 8.89° C | 88% | 984.5 hPa | 0 mm | - | - | - |
| 1777446108 | 8.89° C | 88% | 984.5 hPa | 0 mm | - | - | - |
* Rain latest hour (hover to see other rain measurements)
** Current wind speed in m/s (hover to see current wind gust speed)